Location: Cz?stochówka
(50.8142°N, 19.0915°E)
Time: 15:24:03
(UTC+00:00)

Sich 1 - Pass Details

Date: 13 January 2026
Orbit: 572 x 598 km, 82.5° (Epoch: 18 February)

Event Time Altitude Azimuth Distance (km) Brightness Sun altitude
Rises 04:20:05 0° 187° (S) 2,806 6.4 -21.5°
Reaches altitude 10° 04:22:16 10° 187° (S) 1,906 5.6 -21.1°
Maximum altitude 04:26:29 87° 100° (E) 591 2.9 -20.5°
Drops below altitude 10° 04:30:42 10° 11° (N) 1,906 5.6 -19.8°
Sets 04:32:54 0° 11° (N) 2,806 6.4 -19.5°
